Location: Ashtead
(51.3000°N, 0.3000°W)
Time: 12:17:23
(UTC+00:00)

Cosmos 372 Rocket - Pass Details

Date: 26 September 2023
Orbit: 736 x 766 km, 74.1° (Epoch: 10 December)

Event Time Altitude Azimuth Distance (km) Brightness Sun altitude
Exits shadow 03:31:28 45° 197° (SSW) 1,007 4.3 -22.1°
Maximum altitude 03:33:04 84° 113° (ESE) 748 3.9 -21.9°
Drops below altitude 10° 03:38:12 10° 26° (NNE) 2,259 7.1 -21.2°
Sets 03:40:34 0° 26° (NNE) 3,189 8.0 -20.9°
